QPF
0.06 0.06 0.05 0.05 0.05 0.06 0.05 0.03 0.02 0.02 0.01 0.01 0.01 0.01 0.01 0.01 0.00 0.00 0.00 0.00 0.00 0.00 0.00 0.00 0.00 0.00 0.00 0.00 0.00 0.00 0.00 0.00 0.00 0.00 0.00 0.00 0.00 0.00 0.00 0.00 0.00 0.00 0.00
0.06 0.08 0.07 0.08 0.08 0.06 0.04 0.04 0.03 0.03 0.02 0.02 0.02 0.02 0.02 0.01 0.01 0.01 0.01 0.01 0.01 0.01 0.00 0.00 0.00 0.00 0.00 0.00 0.00 0.00 0.00 0.00 0.00 0.00 0.00 0.00 0.00 0.00 0.00 0.00 0.00 0.00 0.00
0.08 0.09 0.09 0.10 0.09 0.08 0.06 0.06 0.07 0.05 0.04 0.03 0.03 0.04 0.03 0.03 0.02 0.02 0.03 0.02 0.02 0.02 0.01 0.01 0.00 0.00 0.00 0.00 0.00 0.00 0.00 0.00 0.00 0.00 0.00 0.00 0.00 0.00 0.00 0.00 0.00 0.00 0.00
0.11 0.11 0.10 0.10 0.09 0.08 0.07 0.05 0.06 0.07 0.07 0.06 0.06 0.06 0.06 0.06 0.05 0.06 0.07 0.07 0.07 0.05 0.04 0.03 0.02 0.01 0.01 0.01 0.01 0.01 0.01 0.01 0.01 0.00 0.00 0.00 0.00 0.00 0.00 0.00 0.00 0.00 0.00
0.20 0.19 0.15 0.11 0.09 0.08 0.06 0.06 0.08 0.10 0.12 0.11 0.09 0.08 0.08 0.09 0.08 0.10 0.12 0.12 0.10 0.08 0.07 0.07 0.06 0.05 0.05 0.04 0.03 0.02 0.02 0.02 0.02 0.01 0.01 0.01 0.00 0.00 0.00 0.00 0.00 0.00 0.00
0.32 0.29 0.19 0.14 0.11 0.10 0.09 0.09 0.09 0.10 0.12 0.10 0.09 0.09 0.10 0.10 0.10 0.08 0.08 0.07 0.07 0.07 0.07 0.07 0.08 0.09 0.08 0.08 0.07 0.06 0.05 0.05 0.04 0.03 0.02 0.01 0.01 0.01 0.01 0.01 0.00 0.00 0.00
0.25 0.23 0.20 0.18 0.16 0.15 0.14 0.13 0.10 0.08 0.08 0.08 0.09 0.10 0.11 0.13 0.12 0.09 0.07 0.07 0.06 0.05 0.06 0.08 0.09 0.10 0.10 0.09 0.10 0.09 0.08 0.08 0.08 0.06 0.04 0.03 0.02 0.02 0.02 0.02 0.01 0.01 0.01
0.16 0.17 0.16 0.15 0.14 0.12 0.09 0.07 0.05 0.04 0.04 0.04 0.05 0.06 0.07 0.08 0.09 0.09 0.09 0.09 0.08 0.08 0.08 0.07 0.08 0.09 0.08 0.06 0.05 0.05 0.05 0.06 0.06 0.05 0.04 0.03 0.03 0.03 0.02 0.02 0.02 0.01 0.01
0.10 0.10 0.08 0.07 0.06 0.05 0.04 0.03 0.03 0.03 0.03 0.03 0.03 0.04 0.05 0.05 0.05 0.06 0.06 0.06 0.06 0.06 0.05 0.05 0.04 0.05 0.05 0.04 0.03 0.03 0.02 0.02 0.03 0.03 0.02 0.02 0.02 0.02 0.02 0.02 0.01 0.01 0.01
0.05 0.04 0.03 0.02 0.02 0.01 0.01 0.01 0.01 0.01 0.01 0.01 0.01 0.01 0.02 0.02 0.04 0.05 0.06 0.06 0.05 0.05 0.04 0.04 0.04 0.04 0.04 0.04 0.03 0.03 0.03 0.02 0.02 0.02 0.02 0.02 0.01 0.01 0.02 0.02 0.02 0.02 0.02
0.01 0.01 0.01 0.01 0.01 0.01 0.01 0.00 0.01 0.01 0.01 0.02 0.01 0.01 0.01 0.01 0.01 0.02 0.02 0.02 0.02 0.02 0.02 0.02 0.02 0.03 0.03 0.02 0.02 0.02 0.02 0.02 0.01 0.01 0.01 0.01 0.01 0.01 0.01 0.01 0.02 0.02 0.02
0.00 0.00 0.00 0.00 0.00 0.00 0.00 0.00 0.00 0.01 0.01 0.01 0.01 0.01 0.01 0.01 0.01 0.01 0.01 0.01 0.01 0.01 0.01 0.01 0.01 0.01 0.01 0.00 0.00 0.00 0.00 0.00 0.00 0.00 0.00 0.00 0.00 0.00 0.00 0.01 0.01 0.01 0.01
0.00 0.00 0.00 0.00 0.00 0.00 0.00 0.00 0.00 0.00 0.00 0.00 0.00 0.00 0.00 0.00 0.00 0.00 0.00 0.00 0.00 0.00 0.00 0.00 0.00 0.00 0.00 0.00 0.00 0.00 0.00 0.00 0.00 0.00 0.00 0.00 0.00 0.00 0.00 0.00 0.00 0.00 0.00
0.00 0.00 0.00 0.00 0.00 0.00 0.00 0.00 0.00 0.00 0.00 0.00 0.00 0.00 0.00 0.00 0.00 0.00 0.00 0.00 0.00 0.00 0.00 0.00 0.00 0.00 0.00 0.00 0.00 0.00 0.00 0.00 0.00 0.00 0.00 0.00 0.00 0.00 0.00 0.00 0.00 0.00 0.00
0.00 0.00 0.00 0.00 0.00 0.00 0.00 0.00 0.00 0.00 0.00 0.00 0.00 0.00 0.00 0.00 0.00 0.00 0.00 0.00 0.00 0.00 0.00 0.00 0.00 0.00 0.00 0.00 0.00 0.00 0.00 0.00 0.00 0.00 0.00 0.00 0.00 0.00 0.00 0.00 0.00 0.00 0.01
0.00 0.00 0.00 0.00 0.00 0.00 0.00 0.00 0.00 0.00 0.00 0.00 0.00 0.00 0.00 0.00 0.00 0.00 0.00 0.00 0.00 0.00 0.00 0.00 0.00 0.00 0.00 0.00 0.00 0.00 0.00 0.00 0.00 0.00 0.00 0.00 0.00 0.00 0.01 0.01 0.01 0.01 0.01
0.00 0.00 0.00 0.00 0.00 0.00 0.00 0.00 0.00 0.00 0.00 0.00 0.00 0.00 0.00 0.00 0.00 0.00 0.00 0.00 0.00 0.00 0.00 0.00 0.00 0.00 0.00 0.00 0.00 0.00 0.00 0.00 0.00 0.01 0.01 0.01 0.01 0.01 0.01 0.01 0.02 0.02 0.03
0.00 0.00 0.00 0.00 0.00 0.00 0.00 0.00 0.00 0.00 0.00 0.00 0.00 0.00 0.00 0.00 0.00 0.00 0.00 0.00 0.00 0.00 0.00 0.00 0.00 0.00 0.00 0.00 0.00 0.01 0.01 0.01 0.01 0.01 0.01 0.01 0.01 0.01 0.02 0.02 0.03 0.03 0.03
0.00 0.00 0.00 0.00 0.00 0.00 0.00 0.00 0.00 0.00 0.00 0.00 0.00 0.00 0.00 0.00 0.00 0.00 0.00 0.00 0.00 0.00 0.00 0.00 0.00 0.00 0.00 0.01 0.01 0.01 0.01 0.01 0.01 0.01 0.01 0.01 0.02 0.02 0.02 0.02 0.02 0.03 0.03
0.00 0.00 0.00 0.00 0.00 0.00 0.00 0.00 0.00 0.00 0.00 0.00 0.00 0.00 0.00 0.00 0.00 0.00 0.00 0.00 0.00 0.00 0.00 0.00 0.00 0.00 0.01 0.01 0.01 0.01 0.01 0.01 0.01 0.01 0.02 0.02 0.02 0.02 0.02 0.03 0.03 0.03 0.03
0.00 0.00 0.00 0.00 0.00 0.00 0.00 0.00 0.00 0.00 0.00 0.00 0.00 0.00 0.00 0.00 0.00 0.00 0.00 0.00 0.00 0.00 0.00 0.00 0.00 0.00 0.01 0.01 0.01 0.01 0.01 0.01 0.01 0.01 0.01 0.01 0.01 0.02 0.02 0.03 0.03 0.03 0.04
0.00 0.00 0.00 0.00 0.00 0.00 0.00 0.00 0.00 0.00 0.00 0.00 0.00 0.00 0.00 0.00 0.00 0.00 0.00 0.00 0.00 0.00 0.00 0.01 0.01 0.00 0.01 0.01 0.01 0.01 0.01 0.01 0.01 0.01 0.01 0.01 0.01 0.01 0.02 0.03 0.03 0.04 0.05
0.00 0.00 0.00 0.00 0.00 0.00 0.00 0.00 0.00 0.00 0.00 0.00 0.00 0.00 0.00 0.00 0.00 0.00 0.00 0.00 0.00 0.00 0.00 0.01 0.01 0.00 0.00 0.01 0.01 0.01 0.02 0.02 0.02 0.02 0.02 0.02 0.02 0.02 0.02 0.03 0.03 0.04 0.05
0.00 0.00 0.00 0.00 0.00 0.00 0.00 0.00 0.00 0.00 0.00 0.00 0.00 0.00 0.00 0.00 0.00 0.00 0.00 0.00 0.00 0.00 0.00 0.00 0.00 0.00 0.00 0.01 0.01 0.01 0.01 0.02 0.02 0.02 0.02 0.02 0.02 0.02 0.02 0.03 0.03 0.04 0.06
0.00 0.00 0.00 0.00 0.00 0.00 0.00 0.00 0.00 0.00 0.00 0.00 0.00 0.00 0.00 0.00 0.00 0.00 0.00 0.00 0.00 0.00 0.00 0.00 0.00 0.00 0.00 0.01 0.01 0.01 0.01 0.02 0.02 0.02 0.02 0.02 0.02 0.02 0.03 0.03 0.03 0.04 0.06
0.01 0.01 0.01 0.00 0.00 0.00 0.00 0.00 0.00 0.00 0.00 0.00 0.00 0.00 0.00 0.00 0.00 0.00 0.00 0.00 0.00 0.00 0.00 0.00 0.00 0.00 0.00 0.00 0.01 0.01 0.01 0.02 0.02 0.03 0.03 0.02 0.02 0.02 0.02 0.02 0.02 0.03 0.05
MSLP
1013.66 1014.18 1014.70 1015.18 1015.58 1015.87 1016.06 1016.20 1016.30 1016.41 1016.55 1016.75 1017.01 1017.31 1017.62 1017.94 1018.23 1018.51 1018.76 1018.99 1019.21 1019.42 1019.62 1019.81 1019.98 1020.10 1020.19 1020.24 1020.25 1020.22 1020.18 1020.14 1020.08 1020.02 1019.94 1019.84 1019.71 1019.54 1019.34 1019.13 1018.92 1018.75 1018.62
1013.75 1014.19 1014.64 1015.06 1015.41 1015.68 1015.86 1015.97 1016.05 1016.12 1016.21 1016.35 1016.53 1016.76 1017.01 1017.28 1017.56 1017.84 1018.11 1018.39 1018.65 1018.91 1019.16 1019.38 1019.56 1019.69 1019.78 1019.83 1019.84 1019.83 1019.81 1019.80 1019.79 1019.78 1019.75 1019.70 1019.60 1019.44 1019.24 1019.01 1018.75 1018.52 1018.32
1013.83 1014.22 1014.62 1015.00 1015.31 1015.55 1015.70 1015.79 1015.84 1015.87 1015.91 1015.98 1016.09 1016.24 1016.42 1016.64 1016.89 1017.15 1017.44 1017.75 1018.06 1018.36 1018.65 1018.91 1019.12 1019.28 1019.38 1019.44 1019.47 1019.48 1019.48 1019.50 1019.53 1019.56 1019.58 1019.57 1019.50 1019.36 1019.16 1018.90 1018.61 1018.31 1018.02
1013.90 1014.28 1014.65 1015.00 1015.28 1015.49 1015.62 1015.68 1015.70 1015.70 1015.70 1015.71 1015.75 1015.83 1015.95 1016.12 1016.32 1016.57 1016.86 1017.18 1017.52 1017.86 1018.19 1018.49 1018.74 1018.93 1019.06 1019.14 1019.18 1019.21 1019.24 1019.28 1019.34 1019.40 1019.45 1019.47 1019.42 1019.30 1019.10 1018.83 1018.49 1018.12 1017.76
1014.02 1014.39 1014.75 1015.07 1015.32 1015.50 1015.61 1015.66 1015.67 1015.65 1015.62 1015.60 1015.60 1015.63 1015.70 1015.81 1015.97 1016.19 1016.46 1016.78 1017.13 1017.50 1017.86 1018.19 1018.47 1018.70 1018.85 1018.95 1019.01 1019.06 1019.10 1019.15 1019.22 1019.29 1019.36 1019.39 1019.36 1019.26 1019.06 1018.77 1018.40 1017.97 1017.52
1014.20 1014.58 1014.92 1015.22 1015.44 1015.60 1015.70 1015.75 1015.75 1015.74 1015.71 1015.68 1015.67 1015.68 1015.71 1015.79 1015.92 1016.10 1016.34 1016.64 1016.98 1017.35 1017.71 1018.06 1018.36 1018.60 1018.78 1018.89 1018.96 1019.01 1019.05 1019.09 1019.16 1019.22 1019.29 1019.32 1019.29 1019.19 1018.99 1018.69 1018.30 1017.83 1017.31
1014.48 1014.86 1015.19 1015.46 1015.66 1015.80 1015.90 1015.95 1015.98 1015.99 1015.99 1015.99 1015.99 1016.00 1016.03 1016.09 1016.18 1016.32 1016.52 1016.78 1017.08 1017.42 1017.77 1018.11 1018.40 1018.65 1018.83 1018.94 1019.01 1019.04 1019.07 1019.09 1019.12 1019.16 1019.20 1019.22 1019.18 1019.07 1018.87 1018.57 1018.16 1017.67 1017.10
1014.89 1015.26 1015.56 1015.80 1015.98 1016.11 1016.21 1016.29 1016.35 1016.41 1016.47 1016.52 1016.57 1016.60 1016.64 1016.68 1016.75 1016.85 1016.99 1017.19 1017.43 1017.72 1018.02 1018.32 1018.59 1018.81 1018.97 1019.08 1019.12 1019.13 1019.11 1019.09 1019.08 1019.08 1019.07 1019.05 1018.99 1018.87 1018.66 1018.36 1017.95 1017.45 1016.87
1015.44 1015.78 1016.05 1016.26 1016.42 1016.54 1016.65 1016.76 1016.88 1017.00 1017.12 1017.24 1017.34 1017.42 1017.47 1017.51 1017.55 1017.60 1017.68 1017.81 1017.98 1018.19 1018.42 1018.66 1018.87 1019.05 1019.18 1019.24 1019.25 1019.21 1019.15 1019.07 1019.00 1018.93 1018.87 1018.80 1018.71 1018.56 1018.35 1018.04 1017.65 1017.15 1016.57
1016.11 1016.42 1016.65 1016.83 1016.97 1017.09 1017.22 1017.36 1017.53 1017.72 1017.91 1018.09 1018.24 1018.36 1018.43 1018.47 1018.48 1018.48 1018.49 1018.54 1018.62 1018.74 1018.89 1019.05 1019.20 1019.31 1019.38 1019.40 1019.36 1019.27 1019.14 1019.01 1018.86 1018.73 1018.60 1018.47 1018.33 1018.15 1017.92 1017.62 1017.23 1016.76 1016.20
1016.87 1017.15 1017.35 1017.50 1017.62 1017.75 1017.90 1018.07 1018.29 1018.52 1018.77 1019.00 1019.19 1019.33 1019.42 1019.44 1019.42 1019.37 1019.32 1019.29 1019.28 1019.31 1019.37 1019.44 1019.51 1019.56 1019.56 1019.51 1019.41 1019.26 1019.08 1018.88 1018.66 1018.46 1018.26 1018.07 1017.87 1017.65 1017.40 1017.09 1016.71 1016.26 1015.72
1017.69 1017.93 1018.11 1018.25 1018.37 1018.50 1018.67 1018.87 1019.11 1019.38 1019.65 1019.90 1020.11 1020.26 1020.33 1020.33 1020.28 1020.19 1020.07 1019.97 1019.88 1019.82 1019.80 1019.78 1019.77 1019.74 1019.68 1019.57 1019.41 1019.20 1018.95 1018.68 1018.41 1018.13 1017.87 1017.61 1017.36 1017.10 1016.81 1016.49 1016.11 1015.67 1015.16
1018.51 1018.73 1018.90 1019.05 1019.18 1019.32 1019.50 1019.71 1019.96 1020.23 1020.49 1020.74 1020.93 1021.06 1021.10 1021.08 1020.98 1020.85 1020.68 1020.52 1020.36 1020.23 1020.13 1020.04 1019.95 1019.85 1019.72 1019.55 1019.33 1019.06 1018.76 1018.44 1018.11 1017.77 1017.45 1017.13 1016.83 1016.52 1016.20 1015.85 1015.46 1015.02 1014.52
1019.29 1019.52 1019.70 1019.86 1020.01 1020.18 1020.36 1020.57 1020.80 1021.03 1021.27 1021.47 1021.61 1021.69 1021.70 1021.63 1021.50 1021.32 1021.12 1020.91 1020.71 1020.52 1020.36 1020.20 1020.05 1019.89 1019.69 1019.46 1019.19 1018.88 1018.53 1018.16 1017.78 1017.40 1017.03 1016.67 1016.32 1015.97 1015.60 1015.22 1014.80 1014.34 1013.83
1020.01 1020.26 1020.48 1020.67 1020.84 1021.02 1021.20 1021.39 1021.58 1021.77 1021.94 1022.07 1022.15 1022.16 1022.11 1022.00 1021.83 1021.62 1021.39 1021.16 1020.92 1020.70 1020.49 1020.29 1020.08 1019.86 1019.61 1019.33 1019.00 1018.65 1018.26 1017.86 1017.44 1017.03 1016.63 1016.23 1015.84 1015.45 1015.05 1014.63 1014.17 1013.68 1013.14
1020.65 1020.94 1021.20 1021.43 1021.63 1021.81 1021.99 1022.14 1022.29 1022.41 1022.49 1022.54 1022.54 1022.48 1022.37 1022.21 1022.02 1021.79 1021.55 1021.30 1021.05 1020.81 1020.57 1020.32 1020.07 1019.80 1019.50 1019.16 1018.80 1018.41 1017.99 1017.56 1017.12 1016.69 1016.26 1015.84 1015.42 1015.00 1014.56 1014.10 1013.60 1013.06 1012.48
1021.23 1021.56 1021.85 1022.11 1022.34 1022.53 1022.69 1022.81 1022.90 1022.94 1022.94 1022.90 1022.82 1022.70 1022.53 1022.34 1022.12 1021.88 1021.64 1021.39 1021.14 1020.88 1020.62 1020.35 1020.05 1019.73 1019.39 1019.01 1018.60 1018.17 1017.73 1017.28 1016.83 1016.39 1015.95 1015.51 1015.07 1014.62 1014.15 1013.64 1013.10 1012.51 1011.87
1021.75 1022.10 1022.43 1022.71 1022.96 1023.15 1023.29 1023.37 1023.40 1023.37 1023.30 1023.19 1023.04 1022.85 1022.65 1022.43 1022.20 1021.96 1021.72 1021.48 1021.23 1020.96 1020.68 1020.38 1020.05 1019.69 1019.30 1018.88 1018.43 1017.97 1017.51 1017.04 1016.58 1016.13 1015.68 1015.23 1014.77 1014.29 1013.79 1013.25 1012.66 1012.02 1011.32
1022.21 1022.58 1022.92 1023.22 1023.47 1023.65 1023.77 1023.81 1023.79 1023.72 1023.59 1023.41 1023.21 1022.99 1022.76 1022.52 1022.29 1022.06 1021.82 1021.59 1021.34 1021.07 1020.77 1020.44 1020.08 1019.68 1019.24 1018.78 1018.30 1017.82 1017.33 1016.85 1016.37 1015.91 1015.45 1014.99 1014.51 1014.01 1013.48 1012.90 1012.27 1011.58 1010.84
1022.64 1023.00 1023.33 1023.63 1023.86 1024.03 1024.13 1024.15 1024.09 1023.98 1023.81 1023.60 1023.37 1023.13 1022.89 1022.65 1022.42 1022.19 1021.97 1021.73 1021.48 1021.19 1020.88 1020.52 1020.12 1019.69 1019.22 1018.72 1018.21 1017.70 1017.19 1016.69 1016.20 1015.72 1015.25 1014.77 1014.27 1013.75 1013.18 1012.57 1011.90 1011.17 1010.38
1023.02 1023.36 1023.67 1023.94 1024.16 1024.31 1024.38 1024.38 1024.31 1024.17 1023.99 1023.77 1023.53 1023.28 1023.04 1022.81 1022.58 1022.36 1022.13 1021.89 1021.62 1021.32 1020.98 1020.60 1020.17 1019.70 1019.20 1018.67 1018.14 1017.60 1017.07 1016.56 1016.05 1015.55 1015.06 1014.55 1014.03 1013.47 1012.88 1012.23 1011.52 1010.76 1009.94
1023.38 1023.67 1023.94 1024.18 1024.37 1024.50 1024.55 1024.54 1024.46 1024.32 1024.14 1023.92 1023.69 1023.45 1023.21 1022.98 1022.75 1022.53 1022.29 1022.04 1021.75 1021.43 1021.06 1020.64 1020.18 1019.69 1019.16 1018.61 1018.06 1017.50 1016.96 1016.42 1015.90 1015.38 1014.85 1014.32 1013.76 1013.17 1012.53 1011.85 1011.11 1010.32 1009.48
1023.70 1023.94 1024.17 1024.37 1024.53 1024.63 1024.68 1024.66 1024.58 1024.45 1024.27 1024.07 1023.85 1023.62 1023.39 1023.16 1022.93 1022.69 1022.43 1022.15 1021.83 1021.47 1021.07 1020.63 1020.14 1019.62 1019.07 1018.51 1017.95 1017.38 1016.82 1016.27 1015.72 1015.17 1014.61 1014.04 1013.45 1012.81 1012.14 1011.42 1010.66 1009.85 1008.98
1023.99 1024.20 1024.39 1024.55 1024.68 1024.76 1024.79 1024.77 1024.70 1024.58 1024.42 1024.23 1024.02 1023.80 1023.57 1023.33 1023.08 1022.82 1022.53 1022.21 1021.85 1021.45 1021.02 1020.54 1020.03 1019.49 1018.93 1018.36 1017.78 1017.21 1016.64 1016.07 1015.50 1014.92 1014.33 1013.72 1013.09 1012.41 1011.70 1010.95 1010.16 1009.33 1008.46
1024.28 1024.45 1024.61 1024.75 1024.85 1024.92 1024.94 1024.92 1024.85 1024.73 1024.59 1024.41 1024.21 1023.99 1023.75 1023.50 1023.22 1022.92 1022.59 1022.23 1021.83 1021.39 1020.91 1020.40 1019.86 1019.31 1018.73 1018.16 1017.58 1017.00 1016.41 1015.83 1015.24 1014.64 1014.02 1013.37 1012.69 1011.98 1011.24 1010.46 1009.65 1008.80 1007.93
1024.57 1024.73 1024.87 1024.99 1025.07 1025.13 1025.14 1025.11 1025.04 1024.93 1024.79 1024.62 1024.42 1024.19 1023.94 1023.66 1023.36 1023.02 1022.64 1022.23 1021.78 1021.30 1020.79 1020.24 1019.68 1019.10 1018.52 1017.93 1017.35 1016.76 1016.17 1015.57 1014.96 1014.33 1013.68 1013.00 1012.28 1011.54 1010.77 1009.97 1009.14 1008.30 1007.43
Thickness
5717 5716 5714 5713 5711 5710 5709 5709 5709 5709 5708 5707 5707 5705 5704 5703 5701 5699 5698 5697 5695 5695 5694 5692 5691 5691 5689 5688 5687 5686 5684 5683 5681 5684 5684 5686 5686 5687 5687 5686 5686 5685 5685
5717 5715 5713 5712 5710 5709 5708 5708 5708 5707 5706 5706 5705 5703 5702 5700 5699 5697 5695 5694 5692 5690 5689 5688 5687 5686 5684 5683 5681 5680 5679 5678 5677 5677 5679 5679 5680 5680 5681 5680 5680 5680 5680
5717 5714 5712 5710 5708 5707 5706 5706 5704 5703 5702 5702 5701 5700 5699 5698 5696 5694 5692 5691 5689 5687 5685 5683 5682 5680 5678 5676 5675 5674 5673 5672 5670 5670 5671 5672 5672 5673 5673 5673 5673 5674 5675
5715 5711 5708 5707 5705 5704 5703 5702 5701 5700 5699 5699 5697 5696 5695 5693 5691 5690 5687 5685 5683 5681 5680 5677 5675 5672 5671 5670 5669 5667 5666 5664 5662 5662 5663 5663 5663 5664 5663 5664 5666 5667 5668
5711 5707 5704 5703 5701 5700 5698 5697 5696 5695 5695 5694 5692 5690 5688 5686 5685 5683 5681 5678 5676 5673 5670 5669 5667 5664 5663 5661 5660 5658 5657 5655 5654 5653 5655 5655 5655 5653 5653 5654 5656 5659 5661
5708 5703 5700 5698 5695 5694 5693 5692 5690 5689 5687 5686 5684 5682 5679 5678 5676 5674 5672 5669 5666 5663 5660 5657 5655 5652 5651 5650 5649 5647 5646 5644 5643 5642 5644 5644 5645 5644 5642 5642 5643 5644 5650
5702 5697 5695 5693 5690 5688 5687 5685 5683 5680 5679 5677 5674 5671 5668 5665 5664 5663 5661 5657 5654 5651 5648 5645 5643 5641 5639 5637 5636 5635 5633 5631 5631 5630 5631 5632 5631 5631 5630 5630 5630 5631 5636
5695 5691 5689 5687 5683 5680 5678 5675 5673 5670 5668 5665 5662 5659 5656 5653 5651 5650 5647 5644 5640 5636 5633 5631 5628 5626 5625 5624 5623 5622 5620 5619 5618 5617 5617 5618 5617 5616 5615 5616 5617 5620 5624
5685 5682 5680 5678 5675 5672 5668 5665 5662 5659 5655 5652 5649 5645 5642 5639 5637 5635 5633 5629 5625 5621 5619 5616 5614 5613 5611 5609 5609 5608 5607 5606 5606 5605 5604 5604 5603 5602 5601 5601 5602 5603 5611
5674 5672 5670 5668 5664 5660 5656 5653 5650 5647 5643 5639 5634 5629 5627 5624 5622 5621 5619 5615 5611 5608 5605 5602 5599 5597 5596 5595 5594 5593 5592 5592 5590 5590 5589 5589 5589 5588 5587 5586 5586 5587 5592
5663 5661 5658 5655 5652 5648 5644 5640 5637 5633 5629 5624 5619 5615 5612 5609 5607 5605 5603 5600 5596 5593 5591 5588 5585 5583 5582 5580 5578 5577 5576 5575 5575 5574 5574 5574 5573 5572 5572 5570 5568 5568 5572
5652 5648 5645 5642 5640 5635 5631 5626 5623 5619 5615 5609 5605 5601 5597 5594 5591 5589 5586 5584 5581 5578 5575 5573 5571 5568 5567 5565 5563 5562 5560 5559 5558 5557 5557 5557 5556 5555 5554 5552 5551 5551 5552
5639 5635 5631 5628 5624 5621 5617 5613 5608 5603 5600 5595 5591 5586 5582 5579 5575 5573 5570 5568 5565 5562 5559 5557 5555 5553 5551 5549 5547 5545 5543 5542 5540 5538 5538 5537 5536 5535 5534 5534 5534 5534 5535
5625 5620 5617 5613 5609 5605 5602 5598 5594 5589 5585 5581 5576 5572 5567 5563 5560 5557 5554 5551 5549 5546 5543 5541 5539 5536 5534 5531 5529 5527 5524 5522 5520 5519 5518 5517 5516 5515 5515 5514 5515 5516 5518
5611 5607 5603 5599 5595 5590 5586 5581 5578 5574 5570 5566 5561 5557 5553 5549 5544 5540 5537 5535 5532 5528 5526 5523 5521 5519 5517 5514 5512 5509 5506 5505 5503 5501 5500 5499 5499 5498 5498 5497 5497 5497 5498
5598 5593 5589 5585 5581 5576 5571 5565 5560 5557 5554 5550 5545 5540 5536 5531 5527 5524 5521 5517 5514 5511 5508 5505 5503 5500 5497 5495 5493 5491 5489 5487 5486 5484 5483 5482 5482 5482 5482 5482 5481 5482 5483
5586 5580 5576 5572 5567 5562 5557 5553 5546 5541 5536 5532 5527 5523 5518 5514 5510 5506 5502 5499 5495 5492 5488 5485 5483 5480 5478 5477 5475 5474 5473 5472 5471 5470 5469 5469 5468 5469 5469 5470 5471 5472 5474
5573 5569 5563 5557 5553 5548 5542 5537 5532 5527 5521 5514 5509 5504 5500 5495 5491 5488 5484 5480 5477 5473 5469 5467 5464 5463 5461 5460 5460 5459 5459 5459 5459 5458 5458 5458 5457 5458 5459 5460 5462 5463 5465
5560 5554 5548 5543 5538 5532 5526 5520 5515 5509 5503 5496 5491 5486 5481 5477 5474 5470 5466 5463 5459 5456 5453 5450 5449 5447 5447 5446 5447 5447 5447 5448 5448 5449 5449 5449 5449 5449 5451 5452 5454 5455 5456
5546 5541 5535 5528 5522 5516 5510 5504 5497 5491 5485 5479 5474 5469 5464 5461 5457 5453 5450 5446 5443 5440 5438 5437 5436 5435 5435 5436 5436 5437 5438 5439 5440 5440 5441 5441 5441 5442 5443 5445 5447 5449 5452
5531 5526 5520 5512 5506 5499 5493 5486 5480 5474 5468 5462 5457 5452 5448 5445 5441 5437 5434 5431 5429 5428 5426 5426 5425 5426 5426 5427 5428 5429 5430 5431 5432 5433 5433 5434 5435 5436 5437 5439 5442 5445 5448
5515 5509 5502 5496 5489 5482 5475 5469 5463 5457 5452 5447 5442 5438 5434 5431 5427 5424 5421 5419 5418 5417 5416 5416 5417 5418 5419 5420 5421 5422 5424 5425 5426 5426 5427 5428 5429 5431 5434 5436 5439 5442 5445
5500 5493 5486 5479 5472 5466 5460 5454 5448 5443 5438 5433 5429 5425 5422 5418 5415 5413 5410 5409 5408 5408 5408 5409 5410 5411 5412 5413 5414 5415 5417 5419 5419 5420 5421 5424 5426 5429 5431 5433 5436 5439 5443
5484 5477 5470 5464 5458 5452 5446 5441 5435 5430 5426 5422 5418 5414 5411 5407 5405 5403 5401 5401 5400 5401 5401 5402 5404 5405 5407 5408 5410 5411 5412 5413 5414 5416 5418 5420 5423 5426 5429 5432 5435 5438 5441
5470 5463 5457 5451 5445 5439 5434 5429 5424 5419 5415 5410 5407 5404 5400 5398 5396 5394 5393 5393 5393 5394 5395 5397 5398 5400 5402 5404 5406 5408 5409 5411 5412 5414 5416 5418 5421 5425 5428 5431 5435 5438 5441
5457 5451 5445 5439 5433 5427 5422 5417 5412 5408 5404 5400 5397 5394 5391 5389 5387 5386 5385 5385 5386 5387 5389 5391 5393 5395 5397 5400 5402 5404 5407 5409 5411 5413 5414 5417 5421 5425 5428 5431 5435 5438 5441